Regional Weather Roundup
Issued by NWS Upton, NY

Home | Current Version | Previous Version | Text Only | Print | Product List | Glossary On
Versions: 1 2 3 4 5 6 7 8 9 10 11 12 13 14 15 16 17 18 19 20 21 22 23 24 25 26 27 28 29 30 31 32 33 34 35 36 37 38 39 40 41 42 43 44 45 46 47 48 49 50
000
ASUS41 KOKX 301109
RWROKX

REGIONAL WEATHER ROUNDUP
NATIONAL WEATHER SERVICE NEW YORK NY
700 AM EDT TUE MAY 30 2017

NOTE: "FAIR" INDICATES FEW OR NO CLOUDS BELOW 12,000 FEET WITH NO
SIGNIFICANT WEATHER AND/OR OBSTRUCTIONS TO VISIBILITY.

NYZ071-072-176-178-NJZ106-104-301200-
NEW YORK CITY METRO AREA

CITY           SKY/WX    TMP DP  RH WIND       PRES   REMARKS
Central Park   CLOUDY    56  53  90 VRB7      30.18R
Wall St Helipt CLOUDY    56  53  90 SE7       30.17S
Bronx Bot Gard   N/A     54  52  94 S2        30.17F
LaGuardia APRT CLOUDY    55  52  89 SE10      30.15S
Kennedy INTL   CLOUDY    55  55 100 SE9       30.17R
Breezy Point     N/A     54 N/A N/A SE8G14      N/A
Newark/Liberty CLOUDY    56  54  93 S7        30.15S
Teterboro      CLOUDY    56  53  90 VRB6      30.14S FOG
$$

NYZ177-179-078>081-301200-
LONG ISLAND NEW YORK

CITY           SKY/WX    TMP DP  RH WIND       PRES   REMARKS
Jones Beach      N/A     54 N/A N/A SE8         N/A
Matinecock PT    N/A     55 N/A N/A SE2G8       N/A
Farmingdale    CLOUDY    53  52  96 SE8       30.17R
MacArthur/ISP  CLOUDY    54  53  97 SE7       30.17R
Shirley        CLOUDY    54  54 100 VRB3      30.18R
Mt Sinai Harb    N/A    N/A N/A N/A SE3         N/A
Westhampton    CLOUDY    53  50  89 SE5       30.20R
East Hampton   CLOUDY    52  50  93 E3        30.19R
Montauk          N/A     53  52  96 CALM      30.20R
$$

NYZ052-065-067-301200-
HUDSON VALLEY

CITY           SKY/WX    TMP DP  RH WIND       PRES   REMARKS
White Plains   DRIZZLE   53  52  96 SE8       30.15R FOG
Larchmont Harb   N/A     54 N/A N/A SE10        N/A
Croton O-T Hud   N/A     55 N/A N/A SE5G10      N/A
Newburgh       NOT AVBL
Montgomery     CLOUDY    56  53  90 S3        30.13R
Poughkeepsie   CLOUDY    55  52  89 S5        30.13R
Albany         CLOUDY    57  51  80 S10       30.09R
$$

NJZ001-105-106-008-010-013-015-019>022-104-301200-
NEW JERSEY

CITY           SKY/WX    TMP DP  RH WIND       PRES   REMARKS
Newark/Liberty CLOUDY    56  54  93 S7        30.15S
Teterboro      CLOUDY    56  53  90 VRB6      30.14S FOG
Caldwell       CLOUDY    56  53  90 S7        30.16R
Somerville     CLOUDY    56  54  93 VRB3      30.13S
Linden         CLOUDY    56  52  88 S6        30.16R
Perth Amboy      N/A     55 N/A N/A SE9         N/A
Sussex         CLOUDY    54  53  97 CALM      30.14R FOG
Andover          N/A     54  52  93 S5        30.14R
Trenton        CLOUDY    55  54  96 SE5       30.13R
Millville      CLOUDY    56  56 100 E9        30.11F
Atlantic City  CLOUDY    57  54  89 E9        30.13S
Wrightstown    CLOUDY    55  53  94 E7        30.11S
Toms River     CLOUDY    56  54  93 E3        30.15S
Belmar         CLOUDY    54  53  97 SE7       30.16R
$$

PAZ047>061-062-071-301200-
EASTERN PENNSYLVANIA

CITY           SKY/WX    TMP DP  RH WIND       PRES   REMARKS
Philadelphia   CLOUDY    57  53  86 E8        30.13R
Allentown      CLOUDY    56  52  86 E5        30.13R
Scranton       CLOUDY    58  54  86 CALM      30.08S
$$

CTZ002-004>006-009-010-012-RIZ004-006-007-MAZ004-011-015-301200-
SOUTHERN NEW ENGLAND
 IN CT

CITY           SKY/WX    TMP DP  RH WIND       PRES   REMARKS
Bradley INTL   CLOUDY    53  50  89 S8        30.18R
Hartford       CLOUDY    54  51  90 S6        30.18R
Danbury        CLOUDY    51  51 100 S7        30.17R FOG
Wtrbury/Oxford FOG       52  46  82 S6        30.17R VSB 1/2
Bridgeport     CLOUDY    56  51  84 SE7       30.17S
Meriden        CLOUDY    53  50  89 S5        30.18R
New Haven      CLOUDY    54  50  86 SE7       30.18R
Chester        CLOUDY    52  52 100 CALM      30.18R
Groton         CLOUDY    53  50  89 CALM      30.18R
Wilimantic     CLOUDY    53  49  86 CALM      30.20R

 IN RI

CITY           SKY/WX    TMP DP  RH WIND       PRES   REMARKS
Providence     CLOUDY    51  50  96 NE3       30.20R
Block Island   CLOUDY    52  50  93 NE5       30.20R
Westerly       CLOUDY    53  50  89 E3        30.20R
 IN MA

CITY           SKY/WX    TMP DP  RH WIND       PRES   REMARKS
Boston         CLOUDY    50  48  93 NE3       30.20R
Worcester      FOG       47  45  93 CALM      30.18R VSB 1/4
Westfield      CLOUDY    52  52 100 S6        30.17R
Provincetown   CLOUDY    50  49  96 NE5       30.20R FOG
Nantucket      CLOUDY   N/A N/A N/A N7        30.19R
$$

ANZ330-335-338-340-345-350-353-355-301200-
COASTAL MARINE OBSERVATIONS


STATION/POSITION TIME  SKY/WX   TEMP    WIND        PRES    VSBY  WAVE
                                AIR SEA DIR/SP/G                  HT/PER
                 (UTC)          (F)     (DEG/KT/KT) (MB)    (MI)  (FT/S)
NY HARB ENTRANCE NOT AVBL
20 S FIRE ISLAND NOT AVBL
GREAT SOUTH BAY  1030            54 63  140/ 10/ 12   N/A
23 SSW MONTAUK P NOT AVBL
15 E BARNEGAT LI 1030               58                N/A           4/ 8
HUDSON CANYON    NOT AVBL
KINGS POINT      1042            54 59  190/  6/  9 1021.2
EXECUTION ROCKS  1045            55     150/  8/ 12   N/A
CENTRAL LI SOUND 1015            53      90/  8/  8   N/A           0
EASTERN LI SOUND NOT AVBL
ROBBINS REEF     1042            55     140/ 10/ 12 1021.5
$$


>>>>>>>>>>>>>>>>>>>>>>>>>>>> KEY <<<<<<<<<<<<<<<<<<<<<<<<<<<
>                                                          <
>     SKY/WX - Sky Condition/Present Weather               <
>     TMP    - Temperature in Fahrenheit                   <
>     DP     - Dew Point in Fahrenheit                     <
>     RH     - Relative Humidity in Percent                <
>     WIND   - Direction (from) and Speed in MPH           <
>     PRES   - Mean Sea Level Pressure (inches of Hg)      <
>     WCI    - Wind Chill Index                            <
>     VSB    - VISIBILITY IN MILES                         <
>     HX     - HEAT INDEX                                  <
>     TC     - TEMPERATURE IN CELSIUS                      <
>     VRB    - VARIABLE WIND DIRECTION                     <
>                                                          <
>>>>>>>>>>>>>>>>>>>>>>>>>>>> KEY <<<<<<<<<<<<<<<<<<<<<<<<<<<



USA.gov is the U.S. government's official web portal to all federal, state and local government web resources and services.